Date String (YYYY-MM-DD hh:mm:ss) UTC,Instrument flags,Ambient pressure (hPa),Sample flow (lpm),Bypass flow (lpm),Sample temperature (°C),Ambient temperature (°C),ASC tube jacket temperature (°C),LED temperature (°C),Box temperature (°C),Sample RH (%),Span deviation,Mass concentration (μg/m³),Mass concentration (μg/m³),Mass concentration (μg/m³)
DateTimeUTC,F1_M11,P_M11,Q1_M11,Q2_M11,T1_M11,T2_M11,T3_M11,T4_M11,T5_M11,U1_M11,ZSPAN_M11,X2_M11,X0_M11,X1_M11
2021-10-22 06:00:00,,0830.2,5.00,0.00,27.7,26.7,00.0,36.8,29.4,09.4,0000.0,0004.26,0014.75,0003.01
2021-10-22 06:01:00,,0830.2,5.00,0.00,27.7,26.8,00.0,36.8,29.4,09.4,0000.0,0004.24,0015.23,0003.02
2021-10-22 06:02:00,,0830.1,5.01,0.00,27.7,26.7,00.0,36.8,29.4,09.4,0000.0,0004.28,0015.19,0003.03
2021-10-22 06:03:00,,0830.2,5.01,0.00,27.7,26.7,00.0,36.8,29.4,09.4,0000.0,0004.28,0014.90,0003.02
2021-10-22 06:04:00,,0830.1,5.00,0.00,27.7,26.7,00.0,36.8,29.4,09.4,0000.0,0004.25,0014.57,0003.02
2021-10-22 06:05:00,,0830.1,4.99,0.00,27.6,26.7,00.0,36.8,29.4,09.3,0000.0,0004.18,0013.94,0003.01
2021-10-22 06:06:00,,0830.1,5.00,0.00,27.6,26.7,00.0,36.8,29.4,09.3,0000.0,0004.14,0013.10,0002.99
2021-10-22 06:07:00,,0830.1,5.00,0.00,27.6,26.7,00.0,36.8,29.4,09.2,0000.0,0004.12,0013.70,0002.96
2021-10-22 06:08:00,,0830.1,4.99,0.00,27.6,26.7,00.0,36.8,29.4,09.2,0000.0,0004.12,0013.93,0002.93
2021-10-22 06:09:00,,0830.1,5.01,0.00,27.6,26.7,00.0,36.8,29.4,09.2,0000.0,0004.08,0012.62,0002.93
2021-10-22 06:10:00,,0830.1,4.99,0.00,27.6,26.7,00.0,36.8,29.4,09.2,0000.0,0004.03,0012.74,0002.92
2021-10-22 06:11:00,,0830.1,5.00,0.00,27.6,26.7,00.0,36.8,29.4,09.2,0000.0,0004.01,0012.89,0002.92
2021-10-22 06:12:00,,0830.1,5.01,0.00,27.6,26.7,00.0,36.8,29.4,09.4,0000.0,0004.01,0012.22,0002.91
2021-10-22 06:13:00,,0830.1,4.99,0.00,27.6,26.7,00.0,36.8,29.4,09.4,0000.0,0003.98,0011.95,0002.90
2021-10-22 06:14:00,,0830.1,5.00,0.00,27.6,26.7,00.0,36.7,29.4,09.4,0000.0,0003.98,0012.28,0002.90
2021-10-22 06:15:00,,0830.1,4.99,0.00,27.6,26.7,00.0,36.7,29.3,09.4,0000.0,0003.96,0011.79,0002.90
2021-10-22 06:16:00,,0830.1,5.01,0.00,27.6,26.7,00.0,36.7,29.3,09.4,0000.0,0003.99,0011.70,0002.90
2021-10-22 06:17:00,,0830.1,4.99,0.00,27.6,26.7,00.0,36.7,29.3,09.5,0000.0,0003.99,0011.74,0002.91
2021-10-22 06:18:00,,0830.1,4.99,0.00,27.6,26.7,00.0,36.7,29.3,09.5,0000.0,0003.98,0011.98,0002.93
2021-10-22 06:19:00,,0830.1,5.00,0.00,27.6,26.7,00.0,36.7,29.3,09.4,0000.0,0003.95,0012.87,0002.94
2021-10-22 06:20:00,,0830.1,5.00,0.00,27.5,26.6,00.0,36.7,29.2,09.5,0000.0,0003.98,0013.55,0002.93
2021-10-22 06:21:00,,0830.1,5.01,0.00,27.5,26.6,00.0,36.7,29.2,09.5,0000.0,0004.02,0013.88,0002.92
2021-10-22 06:22:00,,0830.0,4.99,0.00,27.5,26.6,00.0,36.7,29.3,09.5,0000.0,0004.04,0014.02,0002.91
2021-10-22 06:23:00,,0830.1,5.01,0.00,27.5,26.6,00.0,36.7,29.2,09.4,0000.0,0004.07,0013.90,0002.90
2021-10-22 06:24:00,,0830.1,4.99,0.00,27.5,26.6,00.0,36.7,29.2,09.2,0000.0,0004.12,0014.43,0002.89
2021-10-22 06:25:00,,0830.1,5.01,0.00,27.5,26.6,00.0,36.7,29.2,09.4,0000.0,0004.13,0014.59,0002.89
2021-10-22 06:26:00,,0830.1,5.00,0.00,27.5,26.5,00.0,36.7,29.2,09.6,0000.0,0004.09,0014.47,0002.87
2021-10-22 06:27:00,,0830.1,5.00,0.00,27.5,26.5,00.0,36.7,29.2,09.4,0000.0,0004.08,0014.85,0002.84
2021-10-22 06:28:00,,0830.1,4.99,0.00,27.5,26.5,00.0,36.7,29.2,09.3,0000.0,0004.04,0016.11,0002.80
2021-10-22 06:29:00,,0830.0,5.01,0.00,27.5,26.5,00.0,36.6,29.2,09.2,0000.0,0004.00,0015.77,0002.77
2021-10-22 06:30:00,,0830.1,5.01,0.00,27.5,26.5,00.0,36.6,29.2,09.3,0000.0,0004.03,0015.04,0002.77
2021-10-22 06:31:00,,0830.1,5.01,0.00,27.5,26.5,00.0,36.6,29.2,09.5,0000.0,0003.98,0014.01,0002.77
2021-10-22 06:32:00,,0830.1,5.00,0.00,27.5,26.5,00.0,36.6,29.2,09.4,0000.0,0004.01,0014.15,0002.75
2021-10-22 06:33:00,,0830.1,5.00,0.00,27.5,26.5,00.0,36.6,29.2,09.4,0000.0,0003.99,0014.12,0002.75
2021-10-22 06:34:00,,0830.1,5.00,0.00,27.5,26.5,00.0,36.6,29.2,09.4,0000.0,0003.97,0014.40,0002.76
2021-10-22 06:35:00,,0830.1,4.99,0.00,27.5,26.6,00.0,36.6,29.2,09.3,0000.0,0003.93,0015.10,0002.73
2021-10-22 06:36:00,,0830.0,5.00,0.00,27.4,26.5,00.0,36.6,29.2,09.3,0000.0,0003.88,0014.69,0002.71
2021-10-22 06:37:00,,0830.1,5.00,0.00,27.4,26.5,00.0,36.6,29.2,09.6,0000.0,0003.88,0014.93,0002.72
2021-10-22 06:38:00,,0830.1,4.99,0.00,27.4,26.5,00.0,36.6,29.2,09.8,0000.0,0003.86,0014.82,0002.73
2021-10-22 06:39:00,,0830.1,5.00,0.00,27.4,26.5,00.0,36.6,29.2,09.8,0000.0,0003.83,0013.42,0002.73
2021-10-22 06:40:00,,0830.1,5.01,0.00,27.4,26.5,00.0,36.6,29.2,09.8,0000.0,0003.82,0013.13,0002.73
2021-10-22 06:41:00,,0830.1,5.00,0.00,27.4,26.5,00.0,36.6,29.2,09.5,0000.0,0003.81,0012.40,0002.71
2021-10-22 06:42:00,,0830.1,5.00,0.00,27.4,26.5,00.0,36.6,29.3,09.4,0000.0,0003.80,0013.14,0002.69
2021-10-22 06:43:00,,0830.1,4.99,0.00,27.4,26.6,00.0,36.6,29.2,09.7,0000.0,0003.74,0012.73,0002.70
2021-10-22 06:44:00,,0830.1,4.99,0.00,27.4,26.5,00.0,36.6,29.2,09.9,0000.0,0003.66,0012.36,0002.68
2021-10-22 06:45:00,,0830.0,5.01,0.00,27.4,26.5,00.0,36.6,29.2,09.6,0000.0,0003.66,0011.88,0002.66
2021-10-22 06:46:00,,0829.9,5.01,0.00,27.4,26.5,00.0,36.6,29.2,09.5,0000.0,0003.63,0010.97,0002.65
2021-10-22 06:47:00,,0829.8,5.00,0.00,27.4,26.5,00.0,36.6,29.2,09.4,0000.0,0003.69,0010.73,0002.66
2021-10-22 06:48:00,,0830.0,4.99,0.00,27.4,26.5,00.0,36.6,29.2,09.4,0000.0,0003.72,0010.48,0002.66
2021-10-22 06:49:00,,0829.9,5.00,0.00,27.4,26.5,00.0,36.5,29.2,09.6,0000.0,0003.75,0011.01,0002.66
2021-10-22 06:50:00,,0829.9,5.00,0.00,27.4,26.5,00.0,36.5,29.2,09.7,0000.0,0003.78,0012.19,0002.66
2021-10-22 06:51:00,,0829.9,5.00,0.00,27.4,26.5,00.0,36.5,29.2,09.6,0000.0,0003.83,0012.56,0002.66
2021-10-22 06:52:00,,0829.9,4.98,0.00,27.4,26.5,00.0,36.5,29.2,09.4,0000.0,0003.84,0013.06,0002.67
2021-10-22 06:53:00,,0829.8,5.01,0.00,27.4,26.5,00.0,36.5,29.2,09.4,0000.0,0003.84,0012.60,0002.66
2021-10-22 06:54:00,,0829.8,5.00,0.00,27.4,26.5,00.0,36.5,29.2,09.5,0000.0,0003.87,0012.49,0002.66
2021-10-22 06:55:00,,0829.8,5.01,0.00,27.4,26.5,00.0,36.5,29.2,09.5,0000.0,0003.91,0012.47,0002.65
2021-10-22 06:56:00,,0829.8,5.00,0.00,27.4,26.5,00.0,36.5,29.2,09.5,0000.0,0003.93,0013.31,0002.65
2021-10-22 06:57:00,,0829.8,4.99,0.00,27.4,26.5,00.0,36.5,29.1,09.5,0000.0,0003.94,0013.31,0002.65
2021-10-22 06:58:00,,0829.8,5.01,0.00,27.4,26.4,00.0,36.5,29.1,09.5,0000.0,0003.89,0013.49,0002.63
2021-10-22 06:59:00,,0829.8,4.99,0.00,27.4,26.4,00.0,36.5,29.1,09.5,0000.0,0003.85,0013.80,0002.63
